GW5117 Weather Reports


time (UTC)temp
C
wind
direction
speed
KPH
gust
KPH
rain 1hr
cm
rain 24hr
cm
rain mn
cm
humidity
%
barometer
mb
20260510132429 18 167 0.0 3.2 0.00 0.00 0.00 75 1016.2
20260510131926 17 151 0.0 6.4 0.00 0.00 0.00 77 1016.3
20260510131424 17 185 0.0 0.0 0.00 0.00 0.00 82 1016.2
20260510130920 17 155 0.0 0.0 0.00 0.00 0.00 85 1016.4
20260510130417 16 138 0.0 1.6 0.00 0.00 0.00 83 1016.3
20260510125914 16 258 0.0 0.0 0.00 0.00 0.00 87 1016.3
20260510125410 16 164 0.0 0.0 0.00 0.00 0.00 90 1016.2
20260510124908 15 276 0.0 3.2 0.00 0.00 0.00 93 1016.2
20260510124404 14 279 3.2 4.8 0.00 0.00 0.00 99 1016.6
20260510123900 13 168 0.0 0.0 0.00 0.00 0.00 99 1016.3
20260510123356 13 135 0.0 0.0 0.00 0.00 0.00 99 1016.3
20260510122852 12 175 0.0 0.0 0.00 0.00 0.00 99 1016.4
20260510122342 12 225 0.0 0.0 0.00 0.00 0.00 99 1016.4
20260510121839 11 119 0.0 0.0 0.00 0.00 0.00 99 1016.2
20260510121337 11 118 0.0 0.0 0.00 0.00 0.00 99 1016.3
20260510120834 10 91 0.0 0.0 0.00 0.00 0.00 99 1016.1
20260510120331 10 179 0.0 0.0 0.00 0.00 0.00 99 1016.1
20260510115826 10 181 0.0 0.0 0.00 0.00 0.00 99 1016.0
20260510115324 10 181 0.0 0.0 0.00 0.00 0.00 99 1016.1
20260510114819 9 180 0.0 0.0 0.00 0.00 0.00 99 1015.8
20260510114317 9 178 0.0 0.0 0.00 0.00 0.00 99 1016.0
20260510113816 9 201 0.0 0.0 0.00 0.00 0.00 99 1015.7
20260510113314 8 184 0.0 0.0 0.00 0.00 0.00 99 1015.5
20260510112810 8 197 0.0 0.0 0.00 0.00 0.00 99 1015.4
20260510112307 8 186 0.0 0.0 0.00 0.00 0.00 99 1015.1
20260510111803 8 190 0.0 0.0 0.00 0.00 0.00 99 1015.4
20260510111300 8 183 0.0 0.0 0.00 0.00 0.00 99 1015.2
20260510110759 8 188 0.0 0.0 0.00 0.00 0.00 99 1015.2
20260510110258 8 189 0.0 0.0 0.00 0.00 0.00 99 1015.1
20260510105758 8 189 0.0 0.0 0.00 0.00 0.00 99 1014.9
20260510105252 8 192 0.0 0.0 0.00 0.00 0.00 99 1014.8
20260510104749 8 195 0.0 0.0 0.00 0.00 0.00 99 1014.9
20260510104247 8 196 0.0 0.0 0.00 0.00 0.00 99 1014.8
20260510103743 8 198 0.0 0.0 0.00 0.00 0.00 99 1014.8
20260510103240 8 206 0.0 0.0 0.00 0.00 0.00 99 1014.7
20260510102740 8 208 0.0 0.0 0.00 0.00 0.00 99 1014.6
20260510102236 8 189 0.0 0.0 0.00 0.00 0.00 99 1014.8
20260510101734 8 187 0.0 0.0 0.00 0.00 0.00 99 1014.9
20260510101227 8 185 0.0 0.0 0.00 0.00 0.00 99 1014.7
20260510100722 8 187 0.0 0.0 0.00 0.00 0.00 99 1014.5
20260510100221 8 187 0.0 0.0 0.00 0.00 0.00 99 1014.6
20260510095721 8 189 0.0 0.0 0.00 0.00 0.00 99 1014.3
20260510095216 8 189 0.0 0.0 0.00 0.00 0.00 99 1014.1
20260510094715 8 189 0.0 0.0 0.00 0.00 0.00 99 1014.1
20260510094211 8 196 0.0 0.0 0.00 0.00 0.00 99 1014.2
20260510093707 8 198 0.0 0.0 0.00 0.00 0.00 99 1014.1
20260510093204 8 200 0.0 0.0 0.00 0.00 0.00 99 1014.2
20260510092700 8 190 0.0 0.0 0.00 0.00 0.00 99 1013.8
20260510092156 8 191 0.0 0.0 0.00 0.00 0.00 99 1014.0
20260510091652 8 202 0.0 0.0 0.00 0.00 0.00 99 1013.9
20260510091148 8 196 0.0 0.0 0.00 0.00 0.00 99 1013.9
20260510090645 8 188 0.0 0.0 0.00 0.00 0.00 99 1013.8
20260510090142 8 188 0.0 0.0 0.00 0.00 0.00 99 1013.9
20260510085637 8 189 0.0 0.0 0.00 0.00 0.00 99 1013.7
20260510085132 8 201 0.0 0.0 0.00 0.00 0.00 99 1013.9
20260510084629 8 194 0.0 0.0 0.00 0.00 0.00 99 1013.9
20260510084126 8 194 0.0 0.0 0.00 0.00 0.00 99 1013.8
20260510083622 8 194 0.0 0.0 0.00 0.00 0.00 99 1013.7
20260510083119 8 200 0.0 0.0 0.00 0.00 0.00 99 1013.7
20260510082615 8 201 0.0 0.0 0.00 0.00 0.00 99 1013.8
20260510082111 8 198 0.0 0.0 0.00 0.00 0.00 99 1013.7
20260510081606 8 199 0.0 0.0 0.00 0.00 0.00 99 1013.6
20260510081102 8 199 0.0 0.0 0.00 0.00 0.00 99 1013.7
20260510080602 8 196 0.0 0.0 0.00 0.00 0.00 99 1013.5
20260510080058 8 195 0.0 0.0 0.00 0.00 0.00 99 1013.7
20260510075555 8 197 0.0 0.0 0.00 0.00 0.00 99 1013.4
20260510075052 8 209 0.0 0.0 0.00 0.00 0.00 99 1013.3
20260510074550 8 206 0.0 0.0 0.00 0.00 0.00 99 1013.4
20260510074045 8 191 0.0 0.0 0.00 0.00 0.00 99 1013.3
20260510073541 8 191 0.0 0.0 0.00 0.00 0.00 99 1013.2
20260510073039 8 200 0.0 0.0 0.00 0.00 0.00 99 1013.4
20260510072535 8 201 1.6 3.2 0.00 0.00 0.00 99 1013.3
20260510072031 8 201 0.0 0.0 0.00 0.00 0.00 99 1013.4
20260510071527 8 192 0.0 1.6 0.00 0.00 0.00 99 1013.5
20260510071026 8 203 0.0 3.2 0.00 0.00 0.00 99 1013.4
20260510070522 8 212 0.0 0.0 0.00 0.00 0.00 99 1013.4
20260510070019 8 203 1.6 1.6 0.00 0.00 0.00 99 1013.4
20260510065515 8 194 1.6 3.2 0.00 0.00 0.00 99 1013.4
20260510065011 8 214 0.0 0.0 0.00 0.00 0.00 99 1013.5
20260510064508 8 199 0.0 0.0 0.00 0.00 0.00 99 1013.3
20260510064005 8 201 0.0 3.2 0.00 0.00 0.00 99 1013.4
20260510063502 8 205 0.0 1.6 0.00 0.00 0.00 99 1013.5
20260510062959 8 180 0.0 1.6 0.00 0.00 0.00 99 1013.5
20260510062455 8 210 1.6 3.2 0.00 0.00 0.00 99 1013.4
20260510061949 8 196 0.0 1.6 0.00 0.00 0.00 99 1013.4
20260510061447 8 196 0.0 0.0 0.00 0.00 0.00 99 1013.6
20260510060943 8 196 0.0 3.2 0.00 0.00 0.00 99 1013.4
20260510060440 8 196 0.0 0.0 0.00 0.00 0.00 99 1013.5
20260510055936 9 196 0.0 1.6 0.00 0.00 0.00 99 1013.6
20260510055432 8 203 0.0 0.0 0.00 0.00 0.00 99 1013.5
20260510054925 9 198 0.0 0.0 0.00 0.00 0.00 99 1013.7
20260510054420 9 195 0.0 0.0 0.00 0.00 0.00 99 1013.7
20260510053915 9 197 0.0 0.0 0.00 0.00 0.00 99 1013.9
20260510053411 8 200 0.0 0.0 0.00 0.00 0.00 99 1013.8
20260510052908 8 200 0.0 1.6 0.00 0.00 0.00 99 1013.8
20260510052403 9 196 0.0 0.0 0.00 0.00 0.00 99 1013.8
20260510051900 9 190 0.0 0.0 0.00 0.00 0.00 99 1013.8
20260510051356 9 202 0.0 0.0 0.00 0.00 0.00 99 1013.9
20260510050853 9 194 0.0 0.0 0.00 0.00 0.00 99 1013.9
20260510050350 9 224 0.0 3.2 0.00 0.00 0.00 99 1014.1
20260510045847 9 189 0.0 0.0 0.00 0.00 0.00 99 1014.1
20260510045343 9 179 0.0 0.0 0.00 0.00 0.00 99 1013.8
20260510044841 9 213 0.0 0.0 0.00 0.00 0.00 99 1013.9
20260510044337 9 206 0.0 0.0 0.00 0.00 0.00 99 1013.8
20260510043834 9 197 0.0 0.0 0.00 0.00 0.00 99 1013.9
20260510043330 9 192 0.0 0.0 0.00 0.00 0.00 99 1014.0
20260510042828 9 196 0.0 0.0 0.00 0.00 0.00 99 1014.0
20260510042324 9 204 0.0 0.0 0.00 0.00 0.00 99 1013.8
20260510041820 9 198 0.0 1.6 0.00 0.00 0.00 99 1013.7
20260510041318 9 199 1.6 1.6 0.00 0.00 0.00 99 1013.9
20260510040815 9 200 1.6 3.2 0.00 0.00 0.00 99 1013.9
20260510040311 9 193 0.0 0.0 0.00 0.00 0.00 99 1013.8
20260510035807 9 206 0.0 1.6 0.00 0.00 0.00 99 1013.9
20260510035306 9 201 0.0 0.0 0.00 0.00 0.00 99 1013.8
20260510034758 9 202 0.0 0.0 0.00 0.00 0.00 99 1013.9
20260510034256 9 195 0.0 1.6 0.00 0.00 0.00 99 1014.0
20260510033753 10 196 0.0 0.0 0.00 0.00 0.00 99 1013.8
20260510033250 10 189 0.0 0.0 0.00 0.00 0.00 99 1013.7
20260510032746 10 202 1.6 1.6 0.00 0.00 0.00 99 1013.7
20260510032243 10 197 0.0 1.6 0.00 0.00 0.00 99 1013.7
20260510031738 10 196 0.0 0.0 0.00 0.00 0.00 99 1013.8
20260510031234 10 201 0.0 0.0 0.00 0.00 0.00 99 1013.7
20260510030733 10 201 0.0 0.0 0.00 0.00 0.00 99 1013.5
20260510030230 10 201 0.0 0.0 0.00 0.00 0.00 99 1013.6
20260510025728 10 203 0.0 1.6 0.00 0.00 0.00 98 1013.6
20260510025225 10 201 0.0 0.0 0.00 0.00 0.00 99 1013.5
20260510024722 10 199 0.0 1.6 0.00 0.00 0.00 98 1013.3
20260510024219 10 209 0.0 1.6 0.00 0.00 0.00 98 1013.2
20260510023714 10 192 1.6 3.2 0.00 0.00 0.00 98 1013.2
20260510023211 10 198 0.0 0.0 0.00 0.00 0.00 98 1013.3
20260510022707 11 201 0.0 0.0 0.00 0.00 0.00 98 1013.3
20260510022202 11 203 0.0 0.0 0.00 0.00 0.00 98 1013.2
20260510021657 11 202 0.0 0.0 0.00 0.00 0.00 97 1013.2
20260510021155 11 199 1.6 1.6 0.00 0.00 0.00 97 1013.0
20260510020655 11 202 0.0 1.6 0.00 0.00 0.00 97 1013.2
20260510020151 11 209 0.0 0.0 0.00 0.00 0.00 97 1013.0
20260510015647 11 197 1.6 3.2 0.00 0.00 0.00 96 1012.8
20260510015144 11 205 1.6 3.2 0.00 0.00 0.00 96 1012.9
20260510014638 11 209 0.0 0.0 0.00 0.00 0.00 96 1012.7
20260510014136 11 209 0.0 0.0 0.00 0.00 0.00 95 1012.6
20260510013636 12 209 0.0 0.0 0.00 0.00 0.00 95 1012.3
20260510013132 12 208 0.0 0.0 0.00 0.00 0.00 95 1012.3
20260510012632 12 206 0.0 0.0 0.00 0.00 0.00 94 1012.1
20260510012129 12 210 0.0 0.0 0.00 0.00 0.00 94 1012.0
20260510011628 12 213 0.0 0.0 0.00 0.00 0.00 94 1012.0
20260510011125 12 201 0.0 1.6 0.00 0.00 0.00 93 1011.9
20260510010621 12 201 0.0 0.0 0.00 0.00 0.00 92 1012.0
20260510010118 13 214 0.0 0.0 0.00 0.00 0.00 91 1012.0
20260510005613 13 217 0.0 0.0 0.00 0.00 0.00 90 1011.8
20260510005111 13 217 0.0 0.0 0.00 0.00 0.00 89 1011.8
20260510004609 13 214 0.0 0.0 0.00 0.00 0.00 89 1011.7
20260510004107 14 219 0.0 0.0 0.00 0.00 0.00 88 1011.7
20260510003603 14 218 0.0 0.0 0.00 0.00 0.00 87 1011.7
20260510003059 15 215 0.0 0.0 0.00 0.00 0.00 85 1011.6
20260510002554 15 211 0.0 0.0 0.00 0.00 0.00 85 1011.4
20260510002051 15 215 0.0 0.0 0.00 0.00 0.00 84 1011.5
20260510001548 15 205 0.0 0.0 0.00 0.00 0.00 82 1011.5
20260510001047 16 243 1.6 1.6 0.00 0.00 0.00 81 1011.3
20260510000542 16 213 0.0 1.6 0.00 0.00 0.00 80 1011.3
20260510000039 16 236 0.0 0.0 0.00 0.00 0.00 79 1011.3
20260509235535 16 223 0.0 0.0 0.00 0.00 0.00 78 1011.2
20260509235032 17 263 0.0 1.6 0.00 0.00 0.00 77 1011.2
20260509234528 17 238 0.0 1.6 0.00 0.00 0.00 75 1011.2
20260509234027 17 210 0.0 3.2 0.00 0.00 0.00 73 1011.1
20260509233524 17 226 0.0 1.6 0.00 0.00 0.00 74 1011.0
20260509233021 18 265 1.6 3.2 0.00 0.00 0.00 68 1011.1
20260509232518 18 195 0.0 3.2 0.00 0.00 0.00 74 1011.1
20260509232014 18 228 0.0 1.6 0.00 0.00 0.00 73 1011.2
20260509231510 18 269 1.6 3.2 0.00 0.00 0.00 69 1011.1
20260509231008 18 191 0.0 1.6 0.00 0.00 0.00 69 1011.1
20260509230505 18 279 1.6 3.2 0.00 0.00 0.00 70 1011.1
20260509230001 19 277 0.0 1.6 0.00 0.00 0.00 65 1011.2
20260509225457 19 203 0.0 3.2 0.00 0.00 0.00 66 1011.0
20260509224953 20 218 0.0 3.2 0.00 0.00 0.00 59 1011.1
20260509224448 21 278 1.6 4.8 0.00 0.00 0.00 59 1011.1
20260509223946 22 166 1.6 3.2 0.00 0.00 0.00 55 1011.1
20260509223442 21 210 0.0 0.0 0.00 0.00 0.00 60 1011.1
20260509222940 22 262 0.0 3.2 0.00 0.00 0.00 56 1011.1
20260509222435 22 76 0.0 3.2 0.00 0.00 0.00 54 1011.2
20260509221931 22 228 0.0 6.4 0.00 0.00 0.00 54 1011.3
20260509221428 21 141 0.0 1.6 0.00 0.00 0.00 56 1011.2
20260509220924 22 180 1.6 6.4 0.00 0.00 0.00 55 1011.3
20260509220420 22 189 1.6 3.2 0.00 0.00 0.00 55 1011.3
20260509215916 22 115 0.0 1.6 0.00 0.00 0.00 55 1011.3
20260509215411 22 210 1.6 3.2 0.00 0.00 0.00 53 1011.3
20260509214910 21 213 0.0 1.6 0.00 0.00 0.00 56 1011.3
20260509214406 21 48 0.0 3.2 0.00 0.00 0.00 58 1011.4
20260509213903 22 72 1.6 1.6 0.00 0.00 0.00 53 1011.4
20260509213359 21 195 3.2 11.3 0.00 0.00 0.00 55 1011.2
20260509212857 21 357 0.0 4.8 0.00 0.00 0.00 60 1011.3
20260509212354 22 336 4.8 6.4 0.00 0.00 0.00 55 1011.5
20260509211850 22 121 0.0 3.2 0.00 0.00 0.00 54 1011.2
20260509211341 22 4 3.2 4.8 0.00 0.00 0.00 56 1011.4
20260509210837 22 183 0.0 3.2 0.00 0.00 0.00 54 1011.2
20260509210335 20 194 0.0 0.0 0.00 0.00 0.00 58 1011.3
20260509205834 20 201 1.6 3.2 0.00 0.00 0.00 58 1011.4
20260509205329 20 190 4.8 6.4 0.00 0.00 0.00 59 1011.4
20260509204826 20 179 0.0 3.2 0.00 0.00 0.00 62 1011.6
20260509204322 21 297 3.2 4.8 0.00 0.00 0.00 60 1011.5
20260509203819 21 175 0.0 1.6 0.00 0.00 0.00 58 1011.3
20260509203316 21 144 0.0 4.8 0.00 0.00 0.00 60 1011.5
20260509202812 21 53 1.6 4.8 0.00 0.00 0.00 60 1011.3
20260509202309 21 162 1.6 3.2 0.00 0.00 0.00 59 1011.3
20260509201807 21 290 1.6 3.2 0.00 0.00 0.00 58 1011.4
20260509201305 20 99 0.0 0.0 0.00 0.00 0.00 59 1011.2
20260509200801 21 153 0.0 1.6 0.00 0.00 0.00 61 1011.3
20260509200256 21 292 1.6 1.6 0.00 0.00 0.00 60 1011.3
20260509195752 21 196 0.0 4.8 0.00 0.00 0.00 62 1011.5
20260509195247 20 326 4.8 9.7 0.00 0.00 0.00 61 1011.5
20260509194742 21 289 1.6 6.4 0.00 0.00 0.00 61 1011.4
20260509194239 21 321 0.0 3.2 0.00 0.00 0.00 60 1011.5
20260509193736 21 299 8.0 11.3 0.00 0.00 0.00 57 1011.6
20260509193235 21 160 3.2 6.4 0.00 0.00 0.00 58 1011.4
20260509192732 21 256 1.6 9.7 0.00 0.00 0.00 64 1011.7
20260509192227 21 195 3.2 3.2 0.00 0.00 0.00 59 1011.5
20260509191723 21 88 0.0 1.6 0.00 0.00 0.00 60 1011.6
20260509191219 20 300 3.2 9.7 0.00 0.00 0.00 60 1011.7
20260509190715 20 152 0.0 4.8 0.00 0.00 0.00 63 1011.6
20260509190212 20 96 1.6 6.4 0.00 0.00 0.00 63 1011.7
20260509185710 20 153 0.0 3.2 0.00 0.00 0.00 63 1011.6
20260509185206 20 164 1.6 9.7 0.00 0.00 0.00 61 1011.6
20260509184704 20 161 1.6 3.2 0.00 0.00 0.00 64 1011.4
20260509184201 20 252 3.2 3.2 0.00 0.00 0.00 62 1011.8
20260509183657 19 150 3.2 4.8 0.00 0.00 0.00 63 1011.6
20260509183152 19 187 3.2 4.8 0.00 0.00 0.00 68 1011.6
20260509182648 19 129 0.0 1.6 0.00 0.00 0.00 65 1011.6
20260509182146 19 125 0.0 3.2 0.00 0.00 0.00 65 1011.6
20260509181643 18 151 1.6 3.2 0.00 0.00 0.00 66 1011.6
20260509181140 19 134 3.2 6.4 0.00 0.00 0.00 64 1011.8
20260509180637 18 156 0.0 1.6 0.00 0.00 0.00 63 1011.8
20260509180133 18 212 3.2 3.2 0.00 0.00 0.00 64 1011.9
20260509175629 18 132 0.0 1.6 0.00 0.00 0.00 66 1011.7
20260509175127 18 137 0.0 1.6 0.00 0.00 0.00 69 1011.8
20260509174622 18 143 0.0 0.0 0.00 0.00 0.00 68 1011.9
20260509174118 18 237 1.6 3.2 0.00 0.00 0.00 64 1011.9
20260509173614 18 342 4.8 6.4 0.00 0.00 0.00 62 1011.9
20260509173109 18 295 0.0 3.2 0.00 0.00 0.00 65 1012.0
20260509172607 17 22 0.0 4.8 0.00 0.00 0.00 65 1012.0
20260509172102 17 286 0.0 1.6 0.00 0.00 0.00 65 1012.2
20260509171558 17 62 1.6 3.2 0.00 0.00 0.00 64 1012.1
20260509171054 17 198 0.0 0.0 0.00 0.00 0.00 68 1012.2
20260509170551 17 15 3.2 3.2 0.00 0.00 0.00 65 1012.2
20260509170046 17 148 0.0 0.0 0.00 0.00 0.00 65 1012.1
20260509165545 17 350 0.0 1.6 0.00 0.00 0.00 66 1012.1
20260509165040 17 173 0.0 0.0 0.00 0.00 0.00 67 1012.3
20260509164537 17 260 1.6 1.6 0.00 0.00 0.00 64 1012.4
20260509164032 17 123 0.0 0.0 0.00 0.00 0.00 65 1012.4
20260509163532 17 226 1.6 6.4 0.00 0.00 0.00 65 1012.1
20260509163032 17 143 0.0 0.0 0.00 0.00 0.00 65 1012.3
20260509162529 17 144 0.0 0.0 0.00 0.00 0.00 63 1012.3
20260509162025 17 159 0.0 4.8 0.00 0.00 0.00 63 1012.3
20260509161522 17 189 0.0 6.4 0.00 0.00 0.00 63 1012.2
20260509161022 17 326 1.6 3.2 0.00 0.00 0.00 65 1012.0
20260509160518 17 302 3.2 6.4 0.00 0.00 0.00 62 1012.2
20260509160014 17 188 1.6 4.8 0.00 0.00 0.00 66 1012.0
20260509155510 17 150 1.6 3.2 0.00 0.00 0.00 63 1012.1
20260509155006 17 163 3.2 4.8 0.00 0.00 0.00 66 1011.9
20260509154502 16 184 1.6 1.6 0.00 0.00 0.00 66 1012.0
20260509154000 16 168 0.0 1.6 0.00 0.00 0.00 67 1012.1
20260509153457 16 168 1.6 3.2 0.00 0.00 0.00 71 1012.1
20260509152953 16 160 0.0 1.6 0.00 0.00 0.00 72 1012.1
20260509152449 15 139 1.6 3.2 0.00 0.00 0.00 69 1012.1
20260509151946 15 86 0.0 0.0 0.00 0.00 0.00 74 1012.1
20260509151442 15 71 0.0 0.0 0.00 0.00 0.00 80 1012.0
20260509150941 15 353 0.0 0.0 0.00 0.00 0.00 83 1012.3
20260509150438 14 353 0.0 0.0 0.00 0.00 0.00 83 1011.9
20260509145937 14 352 0.0 0.0 0.00 0.00 0.00 84 1012.1
20260509145437 14 352 0.0 0.0 0.00 0.00 0.00 84 1012.0
20260509144932 14 352 0.0 0.0 0.00 0.00 0.00 85 1012.3
20260509144430 14 341 0.0 0.0 0.00 0.00 0.00 85 1012.2
20260509143927 14 340 0.0 0.0 0.00 0.00 0.00 83 1012.2
20260509143424 14 340 0.0 0.0 0.00 0.00 0.00 82 1012.2
20260509142920 -17 0.0 0.0 0.00 0.00 0.00 1012.2
20260509142417 -17 0.0 0.0 0.00 0.00 0.00 1012.1
20260509141912 -17 0.0 0.0 0.00 0.00 0.00 1012.4
20260509141410 -17 0.0 0.0 0.00 0.00 0.00 1012.6
20260509140906 -17 0.0 0.0 0.00 0.00 0.00 1012.3
20260509140403 -17 0.0 0.0 0.00 0.00 0.00 1011.8
20260509135901 -17 0.0 0.0 0.00 0.00 0.00 1012.0
20260509135358 -17 0.0 0.0 0.00 0.00 0.00 1012.0
20260509134855 -17 0.0 0.0 0.00 0.00 0.00 1012.0
20260509134353 -17 0.0 0.0 0.00 0.00 0.00 1012.1
20260509133849 -17 0.0 0.0 0.00 0.00 0.00 1012.1
20260509133346 14 357 0.0 0.0 0.00 0.00 0.00 73 1011.9
20260509132845 14 357 0.0 0.0 0.00 0.00 0.00 73 1012.0